User: anonymous   Login
Location: Newark
(52.5667°N, 8.8000°W)
Time: 11:07:11
(UTC+00:00)
Language:

N. Korean satellite - Orbit

View from above orbital plane
View from above orbital plane
View from above satellite
View from above satellite

Ground track
Ground track

The orbit data is extracted from the following two-line orbital elements,

1 39026U 12072A   20050.88308369 +.00001048 +00000-0 +39959-4 0  9996
2 39026 097.2195 051.2372 0036154 307.5914 052.2045 15.28345050399139
Epoch (UTC): 19 February 2020 21:11:38
Eccentricity: 0.0036154
inclination: 97.2195°
perigee height: 456 km
apogee height: 505 km
right ascension of ascending node: 51.2372°
argument of perigee: 307.5914°
revolutions per day: 15.28345050
mean anomaly at epoch: 52.2045°
orbit number at epoch: 39913

The dashed part of the orbit path shows where the satellite is in the earth's shadow,  

DLR